カタログに戻る

GMS-T

運用中通信PO
NORAD 47346·PAYLOAD·🇩🇪 Germany

打ち上げ Jan 20, 2021 から Rocket Lab Launch Complex 1

Loading…

次のパス (今後24時間)

TLE

最新Source: Space-Track

元期: Sep 14, 2026, 14:35 UTC

1 47346U 21004A   26257.60798383 -.00000011  00000-0 -50511-4 0  9997
2 47346  90.1277 242.9218 0003756 128.9493 231.1974 13.16658982271362

AllMySatでGMS-Tをリアルタイム追跡

Download on the App Store